This is the latest recevied weather packets stored in our database for station/object N4ASP-13. If no packets are shown the sender has not sent any weather packets the latest 10 day(s).
| Time | Temp. | Humidity | Pressure | Rain* | Wind** | Luminosity | Snow |
|---|---|---|---|---|---|---|---|
| 1778241249 | 10.56° C | 65% | 1017.3 hPa | 0 mm | - | 255 W/m² | - |
| 1778241190 | 10.56° C | 65% | 1017.2 hPa | 0 mm | - | 255 W/m² | - |
| 1778241130 | 10.56° C | 65% | 1017.3 hPa | 0 mm | - | 258 W/m² | - |
| 1778241067 | 10.56° C | 65% | 1017.1 hPa | 0 mm | - | 262 W/m² | - |
| 1778241002 | 10.56° C | 65% | 1017.2 hPa | 0 mm | - | 262 W/m² | - |
| 1778240941 | 10.56° C | 65% | 1017.1 hPa | 0 mm | - | 262 W/m² | - |
| 1778240882 | 10.56° C | 66% | 1017.1 hPa | 0 mm | - | 262 W/m² | - |
| 1778240822 | 10.56° C | 67% | 1017.1 hPa | 0 mm | - | 262 W/m² | - |
| 1778240762 | 10.56° C | 68% | 1017.1 hPa | 0 mm | - | 260 W/m² | - |
| 1778240699 | 10.56° C | 68% | 1017 hPa | 0 mm | - | 258 W/m² | - |
| 1778240640 | 10.56° C | 67% | 1017 hPa | 0 mm | - | 257 W/m² | - |
| 1778240579 | 10.56° C | 69% | 1016.9 hPa | 0 mm | - | 255 W/m² | - |
| 1778240518 | 10.56° C | 72% | 1017 hPa | 0 mm | - | 248 W/m² | - |
| 1778240456 | 10.56° C | 72% | 1017 hPa | 0 mm | - | 246 W/m² | - |
| 1778240389 | 10.56° C | 70% | 1017 hPa | 0 mm | - | 241 W/m² | - |
| 1778240326 | 10.56° C | 69% | 1016.9 hPa | 0 mm | - | 236 W/m² | - |
| 1778240265 | 10.56° C | 67% | 1016.9 hPa | 0 mm | - | 230 W/m² | - |
| 1778240206 | 10.56° C | 68% | 1017 hPa | 0 mm | - | 227 W/m² | - |
| 1778240146 | 10.56° C | 67% | 1016.9 hPa | 0 mm | - | 223 W/m² | - |
| 1778240085 | 10.56° C | 68% | 1016.9 hPa | 0 mm | - | 220 W/m² | - |
| 1778240025 | 10° C | 67% | 1016.9 hPa | 0 mm | - | 216 W/m² | - |
| 1778239963 | 10° C | 67% | 1016.7 hPa | 0 mm | - | 213 W/m² | - |
| 1778239902 | 10° C | 67% | 1016.9 hPa | 0 mm | - | 204 W/m² | - |
| 1778239840 | 10° C | 67% | 1016.9 hPa | 0 mm | - | 200 W/m² | - |
| 1778239779 | 10° C | 68% | 1016.7 hPa | 0 mm | - | 197 W/m² | - |
* Rain latest hour (hover to see other rain measurements)
** Current wind speed in m/s (hover to see current wind gust speed)